Location: Agadir Mansour Mhndou
(31.2424°N, 8.7730°W)
Time: 05:53:25
(UTC+00:00)

Genesis I - Pass Details

Date: 16 October 2021
Orbit: 469 x 547 km, 64.5° (Epoch: 28 November)

Event Time Altitude Azimuth Distance (km) Brightness Sun altitude
Rises 19:09:17 0° 341° (NNW) 2,717 7.1 -15.1°
Reaches altitude 10° 19:11:37 10° 349° (N) 1,821 6.1 -15.6°
Maximum altitude 19:15:27 38° 58° (ENE) 842 3.8 -16.4°
Enters shadow 19:16:16 34° 87° (E) 908 3.9 -16.6°
